Location: Unspecified
(0.0000°N, 0.0000°E)
Time: 21:10:53
(UTC+00:00)

CZ-3C DEB - Pass Details

Date: 14 March 2026
Orbit: 440 x 28021 km, 21.3° (Epoch: 10 April)

Event Time Altitude Azimuth Distance (km) Brightness Sun altitude
Rises 16:34:20 0° 289° (WNW) 10,713 ? 23.7°
Reaches altitude 10° 16:40:35 10° 293° (WNW) 11,308 ? 22.1°
Maximum altitude 19:25:21 55° 309° (NW) 28,196 ? -19.0°
Enters shadow 23:28:45 67° 241° (WSW) 9,590 ? -79.7°
